STARLINK-37027, 68232

Orbit data source: Space-Track

STARLINK-37027, 68232 is a payload satellite owned by SpaceX/Seattle (US) in LEO that was launched on Tue, 17 Mar 2026 UTC via an FALCON 9 launch vehicle from the Air Force Eastern Test Range (AFETR). Payload-class satellites include a variety of spacecraft equipped with specific instruments for various scientific and technological missions. These include communications satellites like Starlink; space stations such as the ISS; scientific satellites like the Hubble; Earth observation satellites from companies like Planet Labs, Umbra, and HawkEye 360; GPS; miniature CubeSats for education and research; and military/defense satellites.

Loading next visibility...
Identifier
68232, 2026-054A
Orbit
LEO
Country
Flag of USUS
Related business
Manufacturer
SpaceX/Seattle
Mission
Operational spacecraft
Bus & Motor
STARLINK V2MO, Unknown motor
Mass
575 kg wet, ~530 kg dry
Launch date (UTC)
2026-03-17 (2 months ago)
Launch vehicle
FALCON 9
Launch site
Air Force Eastern Test Range (AFETR)
Object type
Payload
Rocket body
Debris
Shape & HBR
Unknown shape, 17.7 m
Radar Cross Section
RCS unknown

Expand to show TLE details & history
Last TLE update: 8 hours ago

TLE from 8 hours ago
0 STARLINK-37027
1 68232U 26054A   26145.41844022  .00026895  00000-0  80401-3 0  9997
2 68232  53.1599 293.7151 0000710  68.0043 292.1035 15.34410392 10838
Epoch: 2026-05-25T10:02Z
TLE epoch observation values (Epoch: 2026-05-25T10:02:33.235Z)
Latitude
Longitude
-99.92989°
Altitude
463.391 km
Speed
7.636 km/s
True Right ascension
19h 34m 51s
True Declination
0° 00' 00"
Sunlit
Object was in full shadow at epoch
Visualization orbit readout
Latitude
Unknown
Longitude
Unknown
Altitude
Unknown
Speed
Unknown
Apparent Right ascension
Unknown
Apparent Declination
Unknown
Sunlit
N/A
Visualization observer readout
Local Sidereal Time
03:03:21
Azimuth
Unknown
Elevation
Unknown
Doppler factor
Unknown
Orbital elements
Apogee altitude
463.415 km
Perigee altitude
462.444 km
Semi-major axis
6,841.066 km
Eccentricity
0.00007
Inclination
53.1599°
RAAN
293.7151°
Arg. of periapsis
68.0043°
True anomaly
292.09596°
Mean anomaly
292.1035°
Eccentric anomaly
292.09973°
Mean motion
3.83581 °/min
Orbital period
93.85 mins
BSTAR
0.00080401
Loading maneuver chart data...
Computing Atmospheric mass density...
Loading historical data...
Loading historical data...
Loading historical data...
Loading historical data...
Loading historical data...
Loading historical data...
Loading historical data...

Documentation

Showing up to 5 results
|